Starlink 11204

operational
NORAD ID: 60931 Int'l Des: 2024-155 Owner: SPXS Country: US Constellation: starlink
LEOCIRCULAR

Über Starlink 11204

Beschreibung wird geladen...

Live-Position

3D-Globus wird geladen...

Nächste Überflüge

Höhenverlauf

Altitude vs Time

uPlot chart will show altitude changes over time

Zweizeiliger Elementsatz

1 60931U 24155H 25354.48005831 -.00000553 00000-0 29835-6 0 9991
2 60931 53.1600 11.5785 0001314 82.1422 277.9745 15.69715499 75965
Epoch: 20. Dez. 2025 • Age: 14 hours

Aktueller Status

Höhe 362.0 km
Geschwindigkeit 7.70 km/s
Subsatellitenpunkt 37.12°N, 69.06°W
Startdatum 31. Aug. 2024
Alter 1.3 years
Typ internet

Technische Details

Klassifizierung Payload
Masse 960.00 kg
Trockenmasse 910.00 kg
Gesamtmasse 960.00 kg
Länge 0.30 m
Durchmesser 4.10 m
Spannweite 29.00 m
Form Box + pan
Hersteller SPXS
Bus-Typ Starlink V2MD
Phasenstatus In Orbit
Besitzer/Staat SPXS/US

Große Konstellationen

Loading constellations...